Date String (YYYY-MM-DD hh:mm:ss) UTC,Instrument flags,Ambient pressure (hPa),Sample flow (lpm),Bypass flow (lpm),Sample temperature (°C),Ambient temperature (°C),ASC tube jacket temperature (°C),LED temperature (°C),Box temperature (°C),Sample RH (%),Span deviation,Mass concentration (μg/m³),Mass concentration (μg/m³),Mass concentration (μg/m³)
DateTimeUTC,F1_M11,P_M11,Q1_M11,Q2_M11,T1_M11,T2_M11,T3_M11,T4_M11,T5_M11,U1_M11,ZSPAN_M11,X0_M11,X2_M11,X1_M11
2022-10-05 02:00:00,,0831.1,5.01,0.00,27.8,26.6,00.0,36.3,29.7,29.6,-000.7,0013.44,0008.26,0007.84
2022-10-05 02:01:00,,0831.0,4.99,0.00,27.8,26.6,00.0,36.4,29.7,29.0,-000.8,0013.35,0008.24,0007.82
2022-10-05 02:02:00,,0831.0,4.99,0.00,27.8,26.6,00.0,36.4,29.7,28.5,-000.8,0013.41,0008.33,0007.92
2022-10-05 02:03:00,,0831.1,5.01,0.00,27.8,26.6,00.0,36.4,29.7,28.4,-001.2,0013.51,0008.43,0008.01
2022-10-05 02:04:00,,0831.0,5.00,0.00,27.8,26.7,00.0,36.4,29.8,28.2,-001.4,0013.66,0008.52,0008.11
2022-10-05 02:05:00,,0831.0,5.00,0.00,27.8,26.7,00.0,36.4,29.8,28.2,-001.6,0013.74,0008.63,0008.22
2022-10-05 02:06:00,,0831.0,4.99,0.00,27.8,26.7,00.0,36.5,29.8,28.4,-001.7,0013.86,0008.61,0008.24
2022-10-05 02:07:00,,0831.0,5.00,0.00,27.9,26.7,00.0,36.5,29.8,28.5,-002.0,0013.14,0008.68,0008.30
2022-10-05 02:08:00,,0831.1,4.99,0.00,27.9,26.7,00.0,36.5,29.8,28.4,-002.0,0013.14,0008.81,0008.40
2022-10-05 02:09:00,,0831.0,5.00,0.00,27.9,26.8,00.0,36.5,29.8,28.3,-002.0,0013.00,0008.90,0008.50
2022-10-05 02:10:00,,0831.1,5.02,0.00,27.9,26.8,00.0,36.5,29.8,28.3,-001.9,0013.40,0009.04,0008.62
2022-10-05 02:11:00,,0831.0,5.00,0.00,27.9,26.8,00.0,36.5,29.9,28.3,-002.1,0013.59,0009.18,0008.76
2022-10-05 02:12:00,,0831.0,5.00,0.00,27.9,26.8,00.0,36.6,29.9,28.2,-002.2,0013.83,0009.24,0008.82
2022-10-05 02:13:00,,0831.0,5.01,0.00,27.9,26.8,00.0,36.6,29.9,28.1,-002.2,0013.95,0009.17,0008.76
2022-10-05 02:14:00,,0831.0,4.99,0.00,28.0,26.8,00.0,36.6,29.9,28.0,-002.2,0013.91,0009.14,0008.73
2022-10-05 02:15:00,,0831.1,5.01,0.00,28.0,26.8,00.0,36.6,29.9,28.0,-001.9,0013.77,0009.07,0008.68
2022-10-05 02:16:00,,0831.2,4.99,0.00,28.0,26.8,00.0,36.6,29.9,28.0,-001.8,0013.81,0009.03,0008.63
2022-10-05 02:17:00,,0831.2,4.99,0.00,28.0,26.9,00.0,36.6,29.9,28.0,-001.8,0013.68,0009.03,0008.59
2022-10-05 02:18:00,,0831.2,5.01,0.00,28.0,26.9,00.0,36.6,29.9,27.9,-001.7,0013.56,0008.98,0008.54
2022-10-05 02:19:00,,0831.2,5.00,0.00,28.0,26.9,00.0,36.6,30.0,27.9,-001.9,0013.45,0008.92,0008.48
2022-10-05 02:20:00,,0831.2,5.00,0.00,28.1,26.9,00.0,36.7,30.0,27.7,-001.9,0013.15,0008.81,0008.37
2022-10-05 02:21:00,,0831.2,5.01,0.00,28.1,26.9,00.0,36.7,30.0,27.7,-002.3,0012.76,0008.70,0008.25
2022-10-05 02:22:00,,0831.2,4.99,0.00,28.1,26.9,00.0,36.7,30.0,27.5,-002.3,0012.73,0008.65,0008.19
2022-10-05 02:23:00,,0831.2,4.99,0.00,28.1,26.9,00.0,36.7,30.0,27.4,-002.2,0012.58,0008.58,0008.12
2022-10-05 02:24:00,,0831.2,5.01,0.00,28.1,27.0,00.0,36.7,30.0,27.5,-002.5,0012.23,0008.51,0008.06
2022-10-05 02:25:00,,0831.2,5.00,0.00,28.1,26.9,00.0,36.7,30.0,27.7,-002.8,0012.18,0008.46,0008.00
2022-10-05 02:26:00,,0831.2,5.00,0.00,28.1,27.0,00.0,36.7,30.0,27.6,-002.7,0012.10,0008.39,0007.93
2022-10-05 02:27:00,,0831.2,4.99,0.00,28.1,27.0,00.0,36.7,30.0,27.4,-002.8,0012.01,0008.31,0007.86
2022-10-05 02:28:00,,0831.2,4.99,0.00,28.2,27.0,00.0,36.8,30.1,27.6,-002.7,0011.67,0008.23,0007.81
2022-10-05 02:29:00,,0831.2,5.01,0.00,28.2,27.0,00.0,36.8,30.1,27.6,-002.8,0011.71,0008.23,0007.79
2022-10-05 02:30:00,,0831.2,4.99,0.00,28.2,27.0,00.0,36.8,30.1,27.6,-002.5,0011.60,0008.16,0007.75
2022-10-05 02:31:00,,0831.2,5.00,0.00,28.2,27.0,00.0,36.8,30.1,27.5,-002.8,0011.30,0008.11,0007.71
2022-10-05 02:32:00,,0831.2,5.00,0.00,28.2,27.0,00.0,36.8,30.1,27.3,-002.9,0011.28,0008.11,0007.72
2022-10-05 02:33:00,,0831.2,5.00,0.00,28.2,27.0,00.0,36.8,30.1,27.2,-002.8,0011.33,0008.06,0007.68
2022-10-05 02:34:00,,0831.2,5.01,0.00,28.2,27.0,00.0,36.8,30.1,27.2,-002.9,0011.24,0008.01,0007.63
2022-10-05 02:35:00,,0831.2,4.99,0.00,28.2,27.0,00.0,36.8,30.1,27.1,-003.0,0011.20,0007.98,0007.60
2022-10-05 02:36:00,,0831.2,5.00,0.00,28.2,27.0,00.0,36.8,30.1,27.1,-002.5,0011.17,0007.96,0007.58
2022-10-05 02:37:00,,0831.2,5.01,0.00,28.2,27.0,00.0,36.9,30.1,27.1,-002.7,0011.26,0007.97,0007.57
2022-10-05 02:38:00,,0831.2,4.99,0.00,28.3,27.0,00.0,36.9,30.1,27.1,-002.5,0011.42,0008.00,0007.58
2022-10-05 02:39:00,,0831.2,5.01,0.00,28.3,27.0,00.0,36.9,30.1,26.9,-002.3,0011.64,0008.02,0007.59
2022-10-05 02:40:00,,0831.2,4.99,0.00,28.3,27.0,00.0,36.9,30.2,26.9,-002.3,0011.64,0007.97,0007.60
2022-10-05 02:41:00,,0831.2,5.02,0.00,28.3,27.0,00.0,36.9,30.2,26.9,-002.3,0011.52,0007.97,0007.61
2022-10-05 02:42:00,,0831.2,4.99,0.00,28.3,27.0,00.0,36.9,30.2,26.9,-002.1,0011.55,0007.98,0007.61
2022-10-05 02:43:00,,0831.2,5.01,0.00,28.3,27.0,00.0,36.9,30.2,26.9,-001.8,0011.46,0007.92,0007.57
2022-10-05 02:44:00,,0831.2,4.99,0.00,28.3,27.0,00.0,36.9,30.2,26.9,-001.8,0011.43,0007.87,0007.55
2022-10-05 02:45:00,,0831.2,5.00,0.00,28.3,27.0,00.0,36.9,30.2,27.0,-001.6,0012.21,0007.86,0007.53
2022-10-05 02:46:00,,0831.2,5.01,0.00,28.3,27.0,00.0,36.9,30.2,27.0,-001.5,0012.49,0007.85,0007.52
2022-10-05 02:47:00,,0831.2,4.99,0.00,28.3,27.0,00.0,36.9,30.2,27.0,-002.1,0013.01,0007.85,0007.50
2022-10-05 02:48:00,,0831.3,5.01,0.00,28.3,27.1,00.0,36.9,30.2,26.9,-001.7,0013.05,0007.82,0007.47
2022-10-05 02:49:00,,0831.3,4.99,0.00,28.3,27.1,00.0,37.0,30.2,26.9,-002.2,0013.03,0007.79,0007.44
2022-10-05 02:50:00,,0831.3,5.01,0.00,28.3,27.1,00.0,37.0,30.2,26.9,-002.6,0013.05,0007.73,0007.39
2022-10-05 02:51:00,,0831.3,4.99,0.00,28.4,27.1,00.0,37.0,30.2,27.0,-002.5,0012.88,0007.72,0007.36
2022-10-05 02:52:00,,0831.4,5.02,0.00,28.4,27.1,00.0,37.0,30.2,26.9,-002.6,0012.92,0007.71,0007.32
2022-10-05 02:53:00,,0831.4,4.99,0.00,28.4,27.1,00.0,37.0,30.2,26.9,-002.4,0012.86,0007.67,0007.30
2022-10-05 02:54:00,,0831.4,5.01,0.00,28.4,27.1,00.0,37.0,30.3,26.9,-002.2,0012.92,0007.67,0007.28
2022-10-05 02:55:00,,0831.4,4.99,0.00,28.4,27.1,00.0,37.0,30.3,26.9,-002.0,0012.83,0007.66,0007.26
2022-10-05 02:56:00,,0831.4,5.00,0.00,28.4,27.1,00.0,37.0,30.3,27.0,-002.2,0012.26,0007.63,0007.24
2022-10-05 02:57:00,,0831.4,5.00,0.00,28.4,27.1,00.0,37.0,30.3,26.9,-002.4,0011.67,0007.62,0007.22
2022-10-05 02:58:00,,0831.4,5.00,0.00,28.4,27.1,00.0,37.0,30.3,26.9,-002.4,0011.32,0007.58,0007.20
2022-10-05 02:59:00,,0831.4,5.00,0.00,28.4,27.1,00.0,37.0,30.3,27.1,-002.5,0010.97,0007.56,0007.19
